EN

Hourly Weather Troitskaya

Today, 12 April, Monday

Time Temperature Precipitation Wind Pressure Humidity
00:00 +9°C° 0 mm 1 mps 727 mmHg 79%
01:00 +9°C° 0 mm 1 mps 727 mmHg 79%
02:00 +9°C° 0 mm 1 mps 727 mmHg 79%
03:00 +9°C° 0 mm 1 mps 727 mmHg 79%
04:00 +8°C° 0 mm 2 mps 728 mmHg 81%
05:00 +8°C° 0 mm 2 mps 728 mmHg 82%
06:00 +8°C° 0 mm 2 mps 729 mmHg 83%
07:00 +9°C° 0 mm 2 mps 729 mmHg 77%
08:00 +11°C° 0 mm 3 mps 730 mmHg 70%
09:00 +13°C° 0 mm 3 mps 730 mmHg 63%
10:00 +13°C° 0 mm 3 mps 730 mmHg 62%
11:00 +14°C° 0 mm 3 mps 730 mmHg 60%
12:00 +16°C° 0 mm 3 mps 730 mmHg 58%
13:00 +14°C° 0 mm 3 mps 730 mmHg 61%
14:00 +14°C° 0 mm 3 mps 730 mmHg 65%
15:00 +13°C° 0 mm 3 mps 731 mmHg 68%
16:00 +12°C° 0.1 mm 3 mps 731 mmHg 80%
17:00 +12°C° 0.1 mm 2 mps 731 mmHg 83%
18:00 +12°C° 0.1 mm 2 mps 731 mmHg 86%
19:00 +12°C° 0 mm 2 mps 731 mmHg 86%
20:00 +10°C° 0 mm 2 mps 731 mmHg 87%
21:00 +11°C° 0 mm 1 mps 731 mmHg 88%
22:00 +11°C° 0.2 mm 1 mps 731 mmHg 89%
23:00 +10°C° 0.2 mm 1 mps 731 mmHg 90%

Tomorrow, 13 April, Tuesday

Time Temperature Precipitation Wind Pressure Humidity
00:00 +10°C° 0.2 mm 1 mps 731 mmHg 91%
01:00 +10°C° 0.1 mm 1 mps 731 mmHg 91%
02:00 +10°C° 0.1 mm 1 mps 731 mmHg 91%
03:00 +10°C° 0.1 mm 1 mps 731 mmHg 91%
04:00 +10°C° 0 mm 1 mps 731 mmHg 91%
05:00 +10°C° 0 mm 1 mps 731 mmHg 91%
06:00 +10°C° 0 mm 1 mps 731 mmHg 92%
07:00 +10°C° 0 mm 1 mps 731 mmHg 90%
08:00 +11°C° 0 mm 1 mps 731 mmHg 87%
09:00 +11°C° 0 mm 1 mps 731 mmHg 85%
10:00 +12°C° 0 mm 1 mps 731 mmHg 82%
11:00 +13°C° 0 mm 2 mps 731 mmHg 79%
12:00 +13°C° 0 mm 2 mps 731 mmHg 76%
13:00 +13°C° 0 mm 2 mps 731 mmHg 76%
14:00 +14°C° 0 mm 1 mps 731 mmHg 76%
15:00 +14°C° 0 mm 1 mps 731 mmHg 76%
16:00 +13°C° 0 mm 1 mps 730 mmHg 78%
17:00 +13°C° 0 mm 1 mps 730 mmHg 79%
18:00 +13°C° 0 mm 1 mps 730 mmHg 81%
19:00 +13°C° 0.1 mm 1 mps 730 mmHg 84%
20:00 +12°C° 0.1 mm 1 mps 730 mmHg 87%
21:00 +12°C° 0.1 mm 1 mps 730 mmHg 91%
22:00 +11°C° 0.1 mm 1 mps 729 mmHg 92%
23:00 +11°C° 0.1 mm 1 mps 729 mmHg 93%

Day after tomorrow, 14 April, Wednesday

Time Temperature Precipitation Wind Pressure Humidity
00:00 +11°C° 0.1 mm 1 mps 728 mmHg 94%
01:00 +10°C° 0.1 mm 2 mps 728 mmHg 93%
02:00 +10°C° 0.1 mm 2 mps 728 mmHg 93%
03:00 +10°C° 0.1 mm 2 mps 727 mmHg 93%
04:00 +10°C° 0 mm 2 mps 727 mmHg 92%
05:00 +10°C° 0 mm 2 mps 727 mmHg 91%
06:00 +10°C° 0 mm 2 mps 727 mmHg 91%
07:00 +12°C° 0 mm 2 mps 727 mmHg 84%
08:00 +13°C° 0 mm 2 mps 728 mmHg 78%
09:00 +14°C° 0 mm 2 mps 728 mmHg 72%
10:00 +14°C° 0.2 mm 2 mps 728 mmHg 73%
11:00 +14°C° 0.2 mm 2 mps 728 mmHg 74%
12:00 +14°C° 0.2 mm 2 mps 728 mmHg 74%
13:00 +14°C° 0.4 mm 2 mps 728 mmHg 75%
14:00 +14°C° 0.4 mm 2 mps 728 mmHg 75%
15:00 +14°C° 0.4 mm 2 mps 728 mmHg 76%
16:00 +14°C° 0.3 mm 1 mps 728 mmHg 78%
17:00 +13°C° 0.3 mm 1 mps 728 mmHg 81%
18:00 +13°C° 0.3 mm 1 mps 728 mmHg 83%
19:00 +13°C° 0.3 mm 1 mps 728 mmHg 85%
20:00 +12°C° 0.3 mm 2 mps 728 mmHg 87%
21:00 +12°C° 0.3 mm 2 mps 729 mmHg 89%
22:00 +10°C° 0.4 mm 2 mps 729 mmHg 89%
23:00 +10°C° 0.4 mm 2 mps 728 mmHg 89%

15 April, Thursday

Time Temperature Precipitation Wind Pressure Humidity
00:00 +11°C° 0.4 mm 1 mps 728 mmHg 90%
01:00 +11°C° 0 mm 1 mps 728 mmHg 88%
02:00 +10°C° 0 mm 1 mps 728 mmHg 87%
03:00 +10°C° 0 mm 1 mps 728 mmHg 86%
04:00 +10°C° 0 mm 1 mps 728 mmHg 85%
05:00 +10°C° 0 mm 1 mps 728 mmHg 84%
06:00 +10°C° 0 mm 1 mps 728 mmHg 83%
07:00 +12°C° 0 mm 1 mps 728 mmHg 76%
08:00 +13°C° 0 mm 2 mps 728 mmHg 69%
09:00 +15°C° 0 mm 2 mps 727 mmHg 62%
10:00 +16°C° 0 mm 2 mps 727 mmHg 59%
11:00 +17°C° 0 mm 2 mps 727 mmHg 55%
12:00 +18°C° 0 mm 3 mps 727 mmHg 52%
13:00 +19°C° 0 mm 3 mps 727 mmHg 51%
14:00 +19°C° 0 mm 3 mps 726 mmHg 49%
15:00 +20°C° 0 mm 3 mps 726 mmHg 48%
16:00 +19°C° 0 mm 3 mps 726 mmHg 52%
17:00 +18°C° 0 mm 2 mps 726 mmHg 57%
18:00 +17°C° 0 mm 2 mps 726 mmHg 61%
19:00 +16°C° 0.1 mm 2 mps 727 mmHg 64%
20:00 +15°C° 0.1 mm 1 mps 727 mmHg 68%
21:00 +14°C° 0.1 mm 1 mps 727 mmHg 71%
22:00 +13°C° 0 mm 1 mps 727 mmHg 72%
23:00 +13°C° 0 mm 1 mps 727 mmHg 73%

16 April, Friday

Time Temperature Precipitation Wind Pressure Humidity
00:00 +13°C° 0 mm 1 mps 727 mmHg 74%
01:00 +12°C° 0 mm 1 mps 727 mmHg 74%
02:00 +12°C° 0 mm 1 mps 727 mmHg 75%
03:00 +12°C° 0 mm 1 mps 727 mmHg 75%
04:00 +12°C° 0 mm 1 mps 727 mmHg 75%
05:00 +12°C° 0 mm 1 mps 727 mmHg 75%
06:00 +11°C° 0 mm 0 mps 727 mmHg 75%
07:00 +14°C° 0 mm 1 mps 727 mmHg 69%
08:00 +15°C° 0 mm 1 mps 727 mmHg 63%
09:00 +17°C° 0 mm 2 mps 728 mmHg 57%
10:00 +18°C° 0 mm 2 mps 727 mmHg 55%
11:00 +19°C° 0 mm 3 mps 727 mmHg 52%
12:00 +19°C° 0 mm 3 mps 727 mmHg 50%
13:00 +18°C° 0.7 mm 3 mps 727 mmHg 58%
14:00 +17°C° 0.7 mm 2 mps 727 mmHg 67%
15:00 +15°C° 0.7 mm 1 mps 727 mmHg 75%
16:00 +15°C° 0.5 mm 1 mps 727 mmHg 79%
17:00 +14°C° 0.5 mm 1 mps 727 mmHg 82%
18:00 +14°C° 0.5 mm 1 mps 727 mmHg 85%
19:00 +14°C° 0 mm 1 mps 727 mmHg 85%
20:00 +13°C° 0 mm 1 mps 727 mmHg 85%
21:00 +13°C° 0 mm 1 mps 727 mmHg 84%
22:00 +13°C° 0 mm 1 mps 727 mmHg 84%
23:00 +12°C° 0 mm 1 mps 726 mmHg 84%

17 April, Saturday

Time Temperature Precipitation Wind Pressure Humidity
00:00 +12°C° 0 mm 1 mps 726 mmHg 84%
01:00 +12°C° 0 mm 1 mps 726 mmHg 84%
02:00 +11°C° 0 mm 0 mps 726 mmHg 84%
03:00 +10°C° 0 mm 0 mps 725 mmHg 84%
04:00 +12°C° 0 mm 1 mps 726 mmHg 85%
05:00 +12°C° 0 mm 1 mps 726 mmHg 86%
06:00 +12°C° 0 mm 1 mps 726 mmHg 87%
07:00 +13°C° 0.1 mm 2 mps 726 mmHg 83%
08:00 +13°C° 0.1 mm 3 mps 727 mmHg 79%
09:00 +14°C° 0.1 mm 3 mps 727 mmHg 75%
10:00 +13°C° 0.8 mm 4 mps 727 mmHg 78%
11:00 +10°C° 0.8 mm 5 mps 728 mmHg 82%
12:00 +9°C° 0.8 mm 6 mps 728 mmHg 86%
13:00 +8°C° 0.2 mm 5 mps 729 mmHg 86%
14:00 +8°C° 0.2 mm 5 mps 730 mmHg 86%
15:00 +8°C° 0.2 mm 4 mps 730 mmHg 86%
16:00 +8°C° 0 mm 4 mps 730 mmHg 86%
17:00 +9°C° 0 mm 3 mps 731 mmHg 85%
18:00 +9°C° 0 mm 3 mps 731 mmHg 84%
19:00 +9°C° 0 mm 3 mps 731 mmHg 84%
20:00 +9°C° 0 mm 2 mps 731 mmHg 84%
21:00 +9°C° 0 mm 2 mps 731 mmHg 84%
22:00 +9°C° 0 mm 2 mps 731 mmHg 84%
23:00 +10°C° 0 mm 1 mps 731 mmHg 84%
Show more

We Need Your Consent

Meteoprog and our Service Providers may store and access personal data such as cookies, device identifiers or other similar technologies on your device and process such data to personalise content and ads, as well as provide social media features and to analyse the traffic.

  • Store and/or access information on your device

    Cookies, device identifiers or other information can be stored or accessed on your device for the purposes indicated above.

  • Personalised ads and content, ad and content measurement, audience insights, and products development

    Ads and content can be personalised based on a profile. More data can be added to better personalise ads and content. Ad and content performance can be measured. Insights about the audience who saw the ads and content can be derived. Such data can be used to develop or improve user’s experience, systems and software.

By clicking ‘I Agree’ you will allow the use of indicated cookies, device identifiers, web beacons or other similar technologies. Your settings can be changed in the browser on your device.

For certain purposes, legitimate interests may be relied on, rather than consent. You can read more about this in our Privacy and Cookie Policy.